Location: Unspecified
(0.0000°N, 0.0000°E)
Time: 04:34:31
(UTC+01:00)

Milstar 3 - Visible Passes

Search period start: 29 November 2014 00:00
Search period end: 09 December 2014 00:00
Orbit: 1102 x 5144 km, 28.2° (Epoch: 24 November)

Date Brightness Start Highest point End Pass type
(mag) Time Alt. Az. Time Alt. Az. Time Alt. Az.
29 Nov 6.5 02:23:47 32° NNE 02:23:47 32° NNE 02:43:52 10° ENE visible
29 Nov 6.1 04:57:21 23° NW 05:19:46 49° NNE 05:39:39 10° E visible
29 Nov 4.2 19:10:54 10° SW 19:19:49 73° SSE 19:36:18 12° ENE visible
29 Nov 5.3 21:54:59 10° W 22:08:33 49° NNW 22:09:52 49° N visible
30 Nov 6.7 01:25:50 22° NE 01:25:50 22° NE 01:35:41 10° ENE visible
30 Nov 6.2 03:59:24 34° NNW 04:12:05 43° NNE 04:35:13 10° E visible
30 Nov 4.8 20:52:48 10° WSW 21:04:08 59° NNW 21:12:01 40° NNE visible
30 Nov 6.2 23:41:00 10° WNW 23:45:35 20° WNW 23:45:35 20° WNW visible
01 Dec 6.3 03:01:27 38° N 03:03:17 38° NNE 03:29:17 10° ENE visible
01 Dec 5.8 05:35:01 15° NW 06:03:27 64° NNE 06:21:50 10° ESE visible
01 Dec 4.3 19:51:12 10° WSW 20:00:48 75° NNW 20:14:09 22° NE visible
01 Dec 5.7 22:37:17 10° WNW 22:47:44 35° NW 22:47:44 35° NW visible
02 Dec 6.5 02:03:31 31° NNE 02:03:31 31° NNE 02:21:44 10° ENE visible
02 Dec 6.1 04:37:05 29° NW 04:56:49 54° NNE 05:18:27 10° E visible
02 Dec 4.0 18:50:03 10° SW 18:58:20 81° SSE 19:14:09 10° ENE visible
02 Dec 5.3 21:34:24 10° W 21:46:43 43° NNW 21:49:52 41° N visible
03 Dec 6.6 01:05:35 18° NE 01:05:35 18° NE 01:12:45 10° ENE visible
03 Dec 6.2 03:39:10 40° NNW 03:49:01 46° NNE 04:13:48 10° E visible
03 Dec 5.6 06:14:29 10° WNW 06:46:06 83° NNE 07:03:06 10° ESE visible
03 Dec 4.8 20:32:11 10° W 20:42:30 52° NNW 20:52:00 30° NE visible
03 Dec 6.1 23:20:20 10° WNW 23:25:34 22° NW 23:25:34 22° NW visible
04 Dec 6.3 02:41:15 39° NNE 02:41:15 39° NNE 03:07:32 10° E visible
04 Dec 5.9 05:14:49 22° NW 05:40:23 69° NNE 06:00:33 10° ESE visible
04 Dec 4.3 19:30:31 10° WSW 19:39:20 66° NNW 19:54:07 15° NE visible
04 Dec 5.6 22:16:48 10° WNW 22:27:42 33° NNW 22:27:42 33° NNW visible
05 Dec 6.6 01:43:20 29° NE 01:43:20 29° NE 01:59:26 10° ENE visible
05 Dec 6.0 04:16:54 36° NNW 04:33:32 58° NNE 04:57:01 10° E visible
05 Dec 5.3 21:13:57 10° W 21:25:07 38° NNW 21:29:49 34° NNE visible
06 Dec 6.5 00:45:25 15° ENE 00:45:25 15° ENE 00:49:44 10° ENE visible
06 Dec 6.1 03:19:00 45° N 03:25:42 49° NNE 03:52:08 10° E visible
06 Dec 5.7 05:52:35 14° WNW 06:23:03 89° NNE 06:41:46 10° ESE visible
06 Dec 4.8 20:11:42 10° W 20:21:05 44° NNW 20:31:56 22° NE visible
06 Dec 6.0 22:59:46 10° WNW 23:05:30 22° NW 23:05:30 22° NW visible
07 Dec 6.3 02:21:06 40° NNE 02:21:06 40° NNE 02:45:33 10° E visible
07 Dec 5.9 04:54:40 29° NW 05:17:01 74° NNE 05:39:05 10° ESE visible
07 Dec 4.3 19:09:56 10° WSW 19:18:03 56° NNW 19:33:04 10° NE visible
07 Dec 5.6 21:56:27 10° WNW 22:07:36 30° N 22:07:36 30° N visible
08 Dec 6.6 01:23:11 26° NE 01:23:11 26° NE 01:36:58 10° ENE visible
08 Dec 6.0 03:56:46 45° NNW 04:09:59 62° NNE 04:35:21 10° ESE visible
08 Dec 5.3 20:53:40 10° WNW 21:03:43 33° NNW 21:09:42 27° NNE visible
08 Dec 6.4 23:42:41 10° NW 23:43:16 11° NW 23:43:16 11° NW visible
